Zurück zum Katalog

STARLINK-36478

AktivKommunikationVLEO
NORAD 67351·PAYLOAD·🇺🇸 United States

Gestartet Jan 9, 2026 von Cape Canaveral Space Force Station

Loading…

Nächste Überflüge (nächste 24 Stunden)

TLE

AktuellSource: CelesTrak SupGP

Epoche: Sep 14, 2026, 21:22 UTC

1 67351C 26003T   26257.89076389  .00041162  00000+0  14910-2 0  2572
2 67351  43.0000 238.2323 0001410 262.6250  92.5981 15.27554364    10

Verfolge STARLINK-36478 in Echtzeit mit AllMySat

Download on the App Store